N4JEX-1 Weather Reports


time (UTC)temp
C
wind
direction
speed
KPH
gust
KPH
rain 1hr
cm
rain 24hr
cm
rain mn
cm
humidity
%
barometer
mb
20260508125239 11 101 1.6 4.8 0.00 0.43 0.00 83 1017.9
20260508124235 11 89 1.6 9.7 0.00 0.43 0.00 84 1017.8
20260508123251 11 105 1.6 8.0 0.00 0.43 0.00 85 1017.8
20260508122227 10 119 3.2 9.7 0.00 0.43 0.00 87 1017.7
20260508121244 10 90 4.8 11.3 0.00 0.43 0.00 89 1017.6
20260508120239 10 78 1.6 4.8 0.00 0.43 0.00 90 1017.6
20260508115227 10 109 1.6 9.7 0.00 0.53 0.00 91 1017.3
20260508114214 9 80 3.2 6.4 0.00 0.53 0.00 92 1017.1
20260508113301 9 93 3.2 4.8 0.00 0.53 0.00 92 1017.0
20260508112239 9 88 0.0 3.2 0.00 0.53 0.00 92 1016.9
20260508111254 9 91 0.0 3.2 0.00 0.53 0.00 92 1016.8
20260508110249 8 108 1.6 3.2 0.00 0.53 0.00 92 1016.7
20260508105218 8 88 3.2 4.8 0.00 0.56 0.00 92 1016.5
20260508104231 8 98 0.0 3.2 0.00 0.56 0.00 92 1016.2
20260508103219 9 82 1.6 3.2 0.00 0.56 0.00 92 1016.0
20260508102216 9 82 1.6 1.6 0.00 0.56 0.00 93 1015.9
20260508101213 9 82 0.0 0.0 0.00 0.56 0.00 93 1015.8
20260508100225 9 83 0.0 0.0 0.00 0.56 0.00 93 1015.7
20260508095213 10 83 0.0 1.6 0.00 0.58 0.00 93 1015.6
20260508094230 10 83 0.0 4.8 0.00 0.58 0.00 93 1015.4
20260508093228 10 84 1.6 4.8 0.00 0.58 0.00 93 1015.5
20260508092214 10 105 1.6 3.2 0.00 0.58 0.00 93 1015.4
20260508091231 10 105 0.0 3.2 0.00 0.58 0.00 93 1015.3
20260508090228 10 105 1.6 3.2 0.00 0.58 0.00 93 1015.3
20260508085218 10 110 1.6 3.2 0.00 0.64 0.00 93 1015.2
20260508084214 10 110 0.0 3.2 0.00 0.64 0.00 93 1015.1
20260508083231 10 110 0.0 0.0 0.00 0.64 0.00 93 1015.1
20260508082218 10 110 0.0 0.0 0.00 0.64 0.00 93 1015.2
20260508081214 10 110 0.0 0.0 0.00 0.64 0.00 93 1015.1
20260508080221 10 110 0.0 0.0 0.00 0.76 0.00 93 1015.0
20260508075225 10 110 0.0 0.0 0.00 0.76 0.00 93 1014.8
20260508074222 10 110 0.0 0.0 0.00 0.76 0.00 93 1014.8
20260508073238 10 110 0.0 0.0 0.00 0.76 0.00 93 1014.7
20260508072213 10 110 0.0 0.0 0.00 0.76 0.00 93 1014.7
20260508071229 11 110 0.0 0.0 0.00 0.76 0.00 93 1014.5
20260508070225 11 110 0.0 0.0 0.00 0.76 0.00 93 1014.5
20260508065235 11 110 0.0 0.0 0.00 0.94 0.00 93 1014.5
20260508064231 11 110 0.0 0.0 0.00 0.94 0.00 93 1014.4
20260508063227 11 110 0.0 0.0 0.00 0.94 0.00 93 1014.4
20260508062224 11 110 0.0 0.0 0.00 0.94 0.00 93 1014.5
20260508061219 11 110 0.0 0.0 0.00 0.94 0.00 93 1014.5
20260508060321 11 110 0.0 0.0 0.00 0.94 0.00 93 1014.5
20260508055245 11 110 0.0 0.0 0.00 1.32 0.00 93 1014.5
20260508054218 11 110 0.0 0.0 0.00 1.32 0.00 93 1014.4
20260508053234 11 110 0.0 0.0 0.00 1.32 0.00 93 1014.3
20260508052222 11 110 0.0 0.0 0.00 1.32 0.00 93 1014.4
20260508051218 11 110 0.0 0.0 0.00 1.32 0.00 92 1014.3
20260508050214 12 110 0.0 0.0 0.00 1.32 0.00 92 1014.2
20260508045256 12 110 0.0 0.0 0.00 1.32 0.00 92 1014.2
20260508044221 12 110 0.0 0.0 0.00 1.32 0.00 92 1014.1
20260508043237 12 110 0.0 0.0 0.00 1.32 0.00 92 1014.1
20260508042212 12 110 0.0 0.0 0.00 1.32 0.00 92 1014.0
20260508041229 12 110 0.0 0.0 0.00 1.32 0.00 92 1014.0
20260508040223 12 110 0.0 0.0 0.00 1.75 1.32 92 1013.8
20260508035230 12 110 0.0 0.0 0.00 1.75 1.32 92 1013.9
20260508034226 13 110 0.0 0.0 0.00 1.75 1.32 92 1013.8
20260508033213 13 110 0.0 0.0 0.00 1.75 1.32 92 1014.0
20260508032238 13 110 0.0 0.0 0.00 1.75 1.32 92 1013.9
20260508031255 13 110 0.0 0.0 0.00 1.75 1.32 92 1013.9
20260508030221 13 110 0.0 0.0 0.00 2.08 1.32 92 1013.6
20260508025239 13 110 0.0 0.0 0.00 2.08 1.32 92 1013.7
20260508024256 13 110 0.0 0.0 0.00 2.08 1.32 92 1013.7
20260508023222 13 110 0.0 0.0 0.00 2.08 1.32 92 1013.5
20260508022219 13 110 0.0 0.0 0.00 2.08 1.32 92 1013.4
20260508021215 13 110 0.0 1.6 0.00 2.08 1.32 91 1013.0
20260508020227 13 110 0.0 0.0 0.00 2.08 1.32 91 1012.9
20260508015217 14 110 0.0 1.6 0.00 2.34 1.32 92 1012.8
20260508014233 14 110 0.0 0.0 0.00 2.34 1.32 91 1012.7
20260508013249 14 110 0.0 1.6 0.00 2.34 1.32 91 1012.7
20260508012246 14 103 0.0 1.6 0.00 2.34 1.32 91 1012.4
20260508011221 14 103 0.0 3.2 0.00 2.34 1.32 91 1012.1
20260508010237 14 142 0.0 1.6 0.00 2.34 1.32 91 1011.9
20260508005226 14 142 0.0 0.0 0.00 2.44 1.32 91 1011.8
20260508004214 14 143 0.0 1.6 0.00 2.44 1.32 91 1011.3
20260508003259 14 192 0.0 4.8 0.00 2.44 1.32 91 1011.3
20260508002237 15 98 4.8 9.7 0.00 2.44 1.32 91 1011.0
20260508001224 15 94 4.8 9.7 0.00 2.44 1.32 91 1010.9
20260508000242 15 52 4.8 14.5 0.00 2.44 1.32 91 1010.6
20260507235239 15 82 6.4 12.9 0.00 2.44 1.32 91 1010.5
20260507234234 15 86 3.2 11.3 0.00 2.44 1.32 91 1010.4
20260507233222 15 84 4.8 11.3 0.00 2.44 1.32 91 1010.5
20260507232219 15 98 4.8 11.3 0.00 2.44 1.32 90 1010.3
20260507231236 15 94 4.8 16.1 0.00 2.44 1.32 90 1010.1
20260507230231 15 103 4.8 12.9 0.03 2.44 1.32 90 1010.0
20260507225221 15 73 4.8 11.3 0.05 2.44 1.32 90 1009.9
20260507224218 15 99 3.2 9.7 0.05 2.44 1.32 90 1009.8
20260507223242 15 111 4.8 17.7 0.05 2.44 1.32 89 1009.8
20260507222217 16 125 6.4 12.9 0.08 2.44 1.32 89 1009.5
20260507221230 16 81 6.4 12.9 0.08 2.44 1.32 89 1009.9
20260507220218 16 57 3.2 14.5 0.05 2.41 1.30 87 1009.2
20260507215237 16 84 4.8 16.1 0.05 2.41 1.30 87 1008.6
20260507214225 17 107 6.4 14.5 0.03 2.39 1.27 86 1008.7
20260507213222 17 65 8.0 22.5 0.03 2.39 1.27 85 1008.3
20260507212217 17 86 6.4 14.5 0.00 2.36 1.24 85 1008.0
20260507211216 18 82 8.0 17.7 0.00 2.36 1.24 85 1008.1
20260507210231 18 105 8.0 22.5 0.00 2.36 1.24 85 1008.1
20260507205241 18 92 6.4 17.7 0.00 2.36 1.24 83 1008.1
20260507204237 19 88 9.7 25.7 0.00 2.36 1.24 79 1008.0
20260507203225 23 44 4.8 6.4 0.00 2.36 1.24 72 1007.7
20260507202222 23 321 1.6 6.4 0.00 2.36 1.24 70 1007.1
20260507201218 23 333 3.2 6.4 0.00 2.36 1.24 73 1007.4
20260507200234 24 355 1.6 4.8 0.00 2.36 1.24 70 1007.2
20260507195225 24 300 1.6 9.7 0.00 2.36 1.24 74 1007.4
20260507194241 24 281 0.0 3.2 0.00 2.36 1.24 77 1007.7
20260507193228 23 345 3.2 4.8 0.00 2.36 1.24 74 1007.8
20260507192225 23 110 0.0 6.4 0.00 2.36 1.24 78 1007.8
20260507191220 23 263 1.6 4.8 0.00 2.36 1.24 79 1007.9
20260507190216 23 257 0.0 3.2 0.00 2.36 1.24 80 1008.1
20260507185226 23 302 1.6 8.0 0.00 2.36 1.24 82 1008.3
20260507184242 22 5 1.6 6.4 0.00 2.36 1.24 80 1008.1
20260507183239 23 159 1.6 4.8 0.00 2.36 1.24 84 1008.2
20260507182215 21 11 1.6 4.8 0.00 2.36 1.24 84 1008.2
20260507181231 21 5 3.2 8.0 0.00 2.36 1.24 88 1008.4
20260507180218 20 33 1.6 6.4 0.00 2.72 1.24 87 1008.8
20260507175233 21 50 1.6 6.4 0.00 2.72 1.24 89 1008.9
20260507174232 20 355 3.2 6.4 0.00 2.72 1.24 89 1009.0
20260507173217 20 63 3.2 6.4 0.00 2.72 1.24 91 1008.9
20260507172213 20 15 3.2 6.4 0.00 2.72 1.24 91 1008.9
20260507171230 19 13 1.6 4.8 0.00 2.72 1.24 92 1009.3
20260507170226 20 355 1.6 6.4 0.00 2.72 1.24 92 1009.4
20260507165213 20 54 1.6 6.4 0.00 2.72 1.24 93 1009.1
20260507164230 19 355 1.6 3.2 0.00 2.72 1.24 93 1009.1
20260507163217 19 360 0.0 4.8 0.00 2.72 1.24 93 1009.2
20260507162238 19 290 1.6 4.8 0.00 2.72 1.24 93 1009.3
20260507161225 19 336 1.6 4.8 0.00 2.72 1.24 93 1009.7
20260507160223 18 342 1.6 3.2 0.03 2.72 1.24 93 1008.7
20260507155230 18 347 3.2 3.2 0.03 2.72 1.24 94 1009.0
20260507154227 18 11 1.6 3.2 0.05 2.72 1.24 94 1008.6
20260507153224 18 107 3.2 4.8 0.08 2.72 1.24 94 1008.3
20260507152220 18 155 0.0 1.6 0.08 2.72 1.24 94 1009.0
20260507151237 18 156 0.0 1.6 0.08 2.72 1.24 94 1009.2
20260507150224 18 153 0.0 3.2 0.05 2.69 1.22 94 1009.4
20260507145242 18 178 0.0 1.6 0.05 2.67 1.19 94 1010.0
20260507144237 18 178 0.0 3.2 0.05 2.67 1.19 94 1010.3
20260507143236 18 246 1.6 3.2 0.03 2.64 1.17 94 1010.5
20260507142251 18 351 0.0 3.2 0.03 2.64 1.17 94 1009.9
20260507141246 18 329 0.0 0.0 0.03 2.64 1.17 94 1009.9
20260507140214 18 268 0.0 0.0 0.05 2.64 1.17 94 1009.7
20260507135253 18 229 0.0 1.6 0.03 2.62 1.14 94 1009.5
20260507134228 18 229 0.0 1.6 0.03 2.62 1.14 94 1009.4
20260507133216 17 344 0.0 0.0 0.10 2.62 1.14 94 1009.2
20260507132239 17 344 0.0 0.0 0.13 2.62 1.14 94 1009.6
20260507131226 17 344 0.0 3.2 0.20 2.62 1.14 94 1009.6
20260507130222 17 344 0.0 1.6 0.23 2.59 1.12 94 1009.7